sat.trackr.live / text

‹ back to catalog

STARLINK-4355

NORAD 53048 · 2022-077F

PAYLOAD ACTIVE UNKNOWN

§ Identity

Operator
Country
US
Launch date
2022-07-11
Launch site
AFWTR
Launch vehicle
Mass (kg)
RCS (m²)

Purposes: comms

External: N2YO · Heavens-Above · Gunter

§ Orbital elements

Epoch: 2026-09-19T22:34:44.980032Z

Period
93.91 min
Inclination
97.2852°
Eccentricity
0.0001434
Mean motion
15.33437516 rev/d
Perigee alt
464.6 km
Apogee alt
466.5 km
Semi-major
6,843.7 km
B*
1.7633e-5
RAAN
78.6988°
Arg perigee
94.4570°
Mean anomaly
265.6837°
Rev number
23,026

§ Raw data

STARLINK-43551 53048U 22077F   26262.94079838  .00000494  00000+0  17633-4 0  99942 53048  97.2852  78.6988 0001434  94.4570 265.6837 15.33437516230260

JSON: /api/v1/satellites/53048 · /tle

For live sub-satellite position, see the globe view (requires WebGL).

§ Visibility from observer

Set your observer location to see the next 7 days of passes ≥ 10°. The values pass through the URL so the page stays shareable.

No JS? Fill the form by hand. The geolocation button needs JavaScript.